#timestamp,LO_Frequency,Hit,StdDev 
1505962815.9,286047009.1,N
1505962835.7,286047010.9,N
1505962855.5,286047013.7,Y
1505962875.4,286047006.4,P
1505962895.2,286047009.0,P
1505962915.0,286047008.5,P
1505962915.9,286047008.5,Y
1505962935.8,286047002.0,P
1505962955.6,286047000.0,N
1505962975.4,286046998.5,N
1505962995.3,286047002.6,N
1505963015.1,286046998.5,N
1505963016.0,286046998.5,N
1505963035.8,286047001.1,N
1505963055.7,286047000.0,N
1505963075.5,286047000.5,N
1505963095.3,286047001.2,N
1505963115.1,286046999.9,N
1505963135.9,286047000.2,N
1505963155.7,286046999.2,N
1505963175.5,286046997.5,N
1505963195.4,286046996.7,N
1505963215.2,286047000.3,N
1505963235.0,286047001.6,N
1505963235.9,286047001.6,N
1505963255.8,286047003.5,N
1505963275.6,286047005.9,N
1505963295.4,286047007.3,N
1505963315.3,286047006.9,N
1505963335.1,286047003.7,N
1505963336.0,286047003.7,N
1505963355.8,286047003.4,N
1505963375.7,286047000.3,N
1505963395.5,286047000.1,N
1505963415.3,286047000.4,N
1505963435.1,286046998.3,N
1505963455.9,286046996.5,N
1505963475.7,286046998.3,N
1505963495.5,286046997.9,N
1505963515.4,286046993.4,N
1505963535.2,286046994.1,N
1505963555.0,286046992.2,N
1505963555.9,286046992.2,N
1505963575.8,286046995.6,N
1505963595.6,286046999.1,N
1505963615.4,286046999.1,N
1505963635.3,286046997.1,N
1505963655.1,286046995.7,N
1505963656.0,286046995.7,N
1505963675.8,286046993.7,N
1505963695.7,286046992.1,N
1505963715.5,286046988.5,N
1505963735.3,286046987.7,N
1505963755.1,286046993.1,N
1505963775.9,286046999.1,N
1505963795.7,286047000.5,N
1505963815.5,286046996.0,N
1505963835.4,286046997.8,N
1505963855.2,286046996.3,N
1505963875.0,286046994.2,N
1505963875.9,286046994.2,N
1505963895.8,286046989.3,Y
1505963915.6,286046997.0,P
1505963935.4,286046999.1,N
1505963955.3,286047000.7,N
1505963975.1,286047000.9,N
1505963995.8,286046998.1,N
1505964015.7,286046998.7,N
1505964035.5,286046997.7,N
1505964055.3,286046991.8,Y
1505964075.2,286046994.4,P
1505964095.9,286046997.8,N
1505964115.7,286046999.1,N
1505964135.6,286047000.3,N
1505964155.4,286047000.1,N
1505964175.2,286046998.2,N
1505964195.1,286046999.3,N
1505964196.0,286046999.3,N
1505964215.8,286047000.5,N
1505964235.6,286047001.1,N
1505964255.5,286046995.5,N
1505964275.3,286046997.3,N
1505964295.1,286046997.7,N
1505964315.8,286046995.7,N
1505964335.7,286046993.7,Y
1505964355.5,286046999.6,P
1505964375.3,286047002.3,P
1505964395.2,286047005.5,P
1505964415.0,286047005.8,N
1505964415.9,286047005.8,N
1505964435.7,286047004.7,N
1505964455.6,286047006.4,N
1505964475.4,286047008.8,Y
1505964495.2,286047007.6,P
1505964515.1,286047007.1,P
1505964516.0,286047007.1,P
1505964535.8,286047004.6,N
1505964555.7,286047006.3,Y
1505964575.5,286047002.4,P
1505964595.3,286047001.1,N
1505964615.1,286047001.4,N
1505964635.9,286047004.0,N
1505964655.7,286047005.6,Y
1505964675.6,286047004.0,P
1505964695.4,286047004.2,P
1505964715.2,286047002.7,P
1505964735.0,286047000.4,N
1505964735.9,286047000.4,N
1505964755.8,286047000.3,N
1505964775.6,286046999.7,N
1505964795.4,286046999.8,N
1505964815.3,286047000.2,N
1505964835.1,286047000.0,N
1505964836.0,286047000.0,N
1505964855.8,286047000.6,N
1505964875.7,286046998.6,N
1505964895.5,286046998.7,N
1505964915.3,286046999.5,N
1505964935.2,286046996.6,N
1505964955.9,286046995.3,N
1505964975.7,286046995.9,N
1505964995.5,286046997.9,N
1505965015.4,286046994.0,N
1505965035.2,286046994.7,N
1505965055.0,286046995.7,N
1505965055.9,286046995.7,N
1505965075.8,286046995.6,N
1505965095.6,286046991.9,N
1505965115.4,286046992.3,N
1505965135.3,286046992.4,N
1505965155.1,286046992.5,N
1505965156.0,286046992.5,N
1505965175.8,286046990.1,N
1505965195.7,286046988.7,Y
1505965215.5,286046990.5,P
1505965235.3,286046992.2,N
1505965255.2,286046991.0,P
1505965275.9,286046993.1,N
1505965295.7,286046990.4,Y
1505965315.6,286047001.0,P
1505965335.4,286047002.0,N
1505965355.2,286047001.4,N
1505965375.1,286047001.3,N
1505965376.0,286047001.3,N
1505965395.8,286047001.8,N
1505965415.6,286047006.0,N
1505965435.5,286047005.7,N
1505965455.3,286047001.0,N
1505965475.1,286046996.5,N
1505965495.8,286046997.2,N
1505965515.7,286047000.2,N
1505965535.5,286046998.7,N
1505965555.3,286046997.4,N
1505965575.2,286046998.8,N
1505965595.9,286047000.0,N
1505965615.7,286047005.3,N
1505965635.6,286047007.5,N
1505965655.4,286047003.1,N
1505965675.2,286047002.7,N
1505965695.1,286047004.3,N
1505965696.0,286047004.3,N
1505965715.8,286047002.9,N
1505965735.6,286047001.3,N
1505965755.5,286047007.5,N
1505965775.3,286047006.4,N
1505965795.1,286047006.9,N
1505965815.8,286047005.2,N
1505965835.7,286047001.5,N
1505965855.5,286046998.3,N
1505965875.3,286047000.7,N
1505965895.2,286047000.3,N
1505965915.9,286046998.2,N
1505965935.7,286046998.2,N
1505965955.6,286047002.8,N
1505965975.4,286047002.8,N
1505965995.2,286047002.7,N
1505966015.1,286047002.2,N
1505966016.0,286047002.2,N
1505966035.8,286047006.2,N
1505966055.6,286047004.1,N
1505966075.5,286047003.0,N
1505966095.3,286047006.9,N
1505966115.1,286047008.8,Y
1505966135.9,286047001.9,P
1505966155.7,286046999.1,N
1505966175.5,286046998.8,N
1505966195.4,286046998.4,N
1505966215.2,286046995.7,N
1505966235.0,286046999.3,N
1505966235.9,286046999.3,N
1505966255.7,286046996.9,N
1505966275.6,286046996.6,N
1505966295.4,286046998.6,N
1505966315.2,286046998.5,N
1505966335.1,286047001.1,N
1505966336.0,286047001.1,N
1505966355.8,286047001.8,N
1505966375.6,286047004.1,N
1505966395.5,286047003.6,N
